Regional Weather Roundup
Issued by NWS

Home | Current Version | Previous Version | Graphics & Text | Print | Product List | Glossary On
Versions: 1 2 3 4 5 6 7 8 9 10 11 12 13 14 15 16 17 18 19 20 21 22 23 24 25 26 27 28 29 30 31 32 33 34 35 36 37 38 39 40 41 42 43 44 45 46 47 48 49 50
000
ASUS43 KLMK 230410
RWRKY
KENTUCKY REGIONAL WEATHER ROUNDUP
NATIONAL WEATHER SERVICE LOUISVILLE KY
1200 AM EDT FRI JUN 23 2017

NOTE "FAIR" INDICATES FEW OR NO CLOUDS BELOW 12,000 FEET
WITH NO SIGNIFICANT WEATHER AND/OR OBSTRUCTIONS TO VISIBILITY.

KYZ001>023-026-027-061>063-070>075-230500-
WESTERN AND SOUTH CENTRAL KENTUCKY

CITY           SKY/WX    TMP DP  RH WIND       PRES   REMARKS
PADUCAH        CLOUDY    80  72  76 S8        29.79S
HENDERSON      CLOUDY    76  74  93 S8        29.82S
OWENSBORO      CLOUDY    76  74  93 S8        29.84S
HOPKINSVILLE   MOCLDY    77  73  90 S8        29.85R
BOWLING GREEN  CLOUDY    78  74  87 S10       29.88R
GLASGOW        CLOUDY    74  74 100 S10G16    29.90R
$$

KYZ024-025-028>034-038-045-046-053-230500-
NORTH CENTRAL KENTUCKY

CITY           SKY/WX    TMP DP  RH WIND       PRES   REMARKS
LOUISVILLE/SDF CLOUDY    74  72  93 SE7       29.86S
LOUISVILLE/LOU MOCLDY    74  73  97 S5        29.87S
FORT KNOX      CLOUDY    73  73 100 S9        29.85F
$$

KYZ035>037-039>044-047>052-055>060-089>105-230500-
NORTHEAST KENTUCKY

CITY           SKY/WX    TMP DP  RH WIND       PRES   REMARKS
LEXINGTON      MOCLDY    71  69  93 S9        29.91F
COVINGTON      LGT RAIN  70  69  97 S10       29.88F FOG
FRANKFORT      MOCLDY    72  68  87 SE5       29.89F
$$

KYZ054-064>069-076>088-106>120-230500-
SOUTHEAST KENTUCKY

CITY           SKY/WX    TMP DP  RH WIND       PRES   REMARKS
JACKSON        CLOUDY    69  67  93 VRB3      29.98S
LONDON         CLOUDY    71  68  90 S7        29.97F
SOMERSET       MOCLDY    70  70 100 S3        29.97S
MIDDLESBORO    CLOUDY    71  71 100 S5        30.02F
MONTICELLO     CLOUDY    74  71  91 VRB6      29.97S
$$





USA.gov is the U.S. government's official web portal to all federal, state and local government web resources and services.